[[{"header":{"parameterUnit":"m.s-1","parameterCategory":2,"la1":30.2991,"la2":30.254,"lo1":-89.0895,"lo2":-89.0444,"dy":0.0017,"dx":0.0017,"nx":28,"ny":28,"refTime":"2024-04-12T21:00:00:Z","depth":"0","parameterNumber":2,"parameterNumberName":"U-component_of_CURRENTS"},"data":[0,0,0,0,0,0,0,0,0,0,0,0,0,0,0,0,0,0,0,0,0,0,0,0,0,0,0,0,0,0,0,0,0,0,0,0,0,0,0,0,0,0,0,0,0,0,0,0,0,0,0,0,0,0,0,0,0,0,-0.2742,-0.2742,0,-0.2758,-0.2758,-0.2758,-0.2747,-0.2747,-0.2746,-0.2746,-0.2724,-0.2723,-0.2723,0,0,0,0,0,0,0,0,0,0,0,0,0,-0.268,-0.2681,-0.2742,-0.2742,-0.2743,-0.2758,-0.2758,-0.2758,-0.2747,-0.2747,-0.2746,-0.2746,-0.2724,-0.2724,-0.2723,0,0,0,0,0,0,0,0,0,0,0,0,0,-0.27,-0.2681,-0.2742,-0.2741,-0.2741,-0.2758,-0.2758,-0.2758,-0.2747,-0.2747,-0.2746,-0.2746,-0.2724,-0.2724,-0.2723,-0.2728,0,0,-0.2721,-0.2721,0,0,0,0,0,0,0,0,-0.2699,-0.2702,-0.2741,-0.2741,-0.2741,-0.2752,-0.2728,-0.2747,-0.2747,-0.2742,-0.2746,-0.2746,-0.2732,-0.2731,-0.2731,-0.2727,-0.2726,-0.2721,-0.2721,-0.2721,-0.2721,0,0,0,0,0,0,0,-0.2698,-0.2701,-0.2746,-0.2741,-0.2742,-0.2733,-0.2735,-0.2731,-0.2736,-0.2742,-0.2742,-0.2748,-0.2731,-0.2732,-0.2731,-0.2725,-0.2721,-0.2721,-0.2721,-0.272,-0.2705,-0.2705,0,0,0,0,0,0,-0.2703,-0.27,-0.2745,-0.2746,-0.2722,-0.2734,-0.2737,-0.2747,-0.2737,-0.2736,-0.2749,-0.2748,-0.2733,-0.2731,-0.273,-0.2733,-0.2721,-0.272,-0.272,-0.2705,-0.2705,-0.2705,0,0,0,0,0,0,-0.2701,-0.2707,-0.2744,-0.2725,-0.273,-0.2736,-0.2748,-0.2748,-0.2747,-0.2743,-0.274,-0.2748,-0.2733,-0.2731,-0.2722,-0.2732,-0.272,-0.272,-0.2705,-0.2705,-0.2705,-0.2741,0,0,0,0,0,0,-0.27,-0.2706,-0.2708,-0.2726,-0.2731,-0.2755,-0.2748,-0.2748,-0.2753,-0.2752,-0.2742,-0.2739,-0.2732,-0.2723,-0.2721,-0.2731,-0.2719,-0.2705,-0.2705,-0.2705,-0.274,-0.2742,-0.2744,0,0,0,0,0,-0.2697,-0.2704,-0.2708,-0.2714,-0.2736,-0.2755,-0.2757,-0.2758,-0.2753,-0.2755,-0.2744,-0.274,-0.272,-0.2722,-0.2721,-0.2731,-0.2705,-0.2705,-0.2705,-0.2739,-0.2742,-0.2744,0,0,0,0,0,0,-0.2676,-0.2704,-0.2709,-0.2723,-0.2739,-0.2754,-0.2753,-0.2759,-0.2753,-0.2746,-0.2739,-0.2736,-0.2733,-0.2723,-0.2725,-0.2724,-0.2712,-0.2711,-0.2739,-0.2741,-0.2743,-0.2745,-0.2719,0,0,0,0,0,-0.2674,-0.2684,-0.2712,-0.272,-0.2728,-0.2741,-0.2746,-0.2752,-0.2754,-0.2751,-0.2746,-0.2736,-0.2732,-0.2729,-0.2721,-0.2722,-0.2699,-0.2725,-0.2727,-0.2729,-0.2728,-0.2702,-0.2702,-0.2704,-0.2704,-0.2704,0,0,-0.2667,-0.2683,-0.2689,-0.2715,-0.2723,-0.2742,-0.2742,-0.2752,-0.2765,-0.2749,-0.2752,-0.2742,-0.2732,-0.2733,-0.2731,-0.2726,-0.2715,-0.2729,-0.2731,-0.2729,-0.2702,-0.2702,-0.2702,-0.2704,-0.2704,-0.2704,0,0,-0.2661,-0.2674,-0.2682,-0.27,-0.2721,-0.2735,-0.274,-0.2758,-0.2761,-0.2767,-0.2758,-0.2751,-0.2747,-0.2743,-0.2741,-0.2747,-0.2726,-0.2747,-0.2763,-0.2738,-0.2737,-0.2737,-0.2703,-0.2699,-0.275,-0.275,-0.275,0,-0.2651,-0.2668,-0.2686,-0.2703,-0.2718,-0.2734,-0.2752,-0.2763,-0.2774,-0.2776,-0.2769,-0.2758,-0.2752,-0.2755,-0.276,-0.2754,-0.2731,-0.2758,-0.2741,-0.274,-0.2739,-0.2704,-0.2699,-0.2752,-0.2751,-0.2751,-0.2751,0,-0.2652,-0.2671,-0.2676,-0.2707,-0.2728,-0.2741,-0.2771,-0.2781,-0.2786,-0.2794,-0.2792,-0.278,-0.2772,-0.2775,-0.2773,-0.2768,-0.2752,-0.2747,-0.2738,-0.2741,-0.2703,-0.2698,-0.2754,-0.2754,-0.2753,-0.2753,0,0,-0.2612,-0.2668,-0.2667,-0.2688,-0.2731,-0.2748,-0.2775,-0.2801,-0.281,-0.2813,-0.2818,-0.2815,-0.2803,-0.2799,-0.2793,-0.2779,-0.2755,-0.2765,-0.2763,-0.2735,-0.2691,-0.2569,-0.2551,-0.275,-0.2749,-0.2749,-0.2667,0,-0.2603,-0.2639,-0.267,-0.2703,-0.2727,-0.2761,-0.2787,-0.2813,-0.2824,-0.2832,-0.2824,-0.2822,-0.2815,-0.2809,-0.2796,-0.2771,-0.2743,-0.2777,-0.2687,-0.2684,-0.2579,-0.2541,-0.2445,-0.2354,-0.2661,-0.266,-0.2659,0,-0.2585,-0.2615,-0.2648,-0.271,-0.2722,-0.2744,-0.2783,-0.281,-0.2833,-0.284,-0.2839,-0.2833,-0.2823,-0.281,-0.2756,-0.2779,-0.2734,-0.2708,-0.2703,-0.2572,-0.2551,-0.24,-0.2332,-0.2314,-0.2651,-0.2651,-0.2652,0,-0.2535,-0.2597,-0.2622,-0.2642,-0.2712,-0.2728,-0.2763,-0.28,-0.2815,-0.2839,-0.2841,-0.2833,-0.2817,-0.2775,-0.2717,-0.2739,-0.2641,-0.2662,-0.2503,-0.2495,-0.2384,-0.2365,-0.2288,-0.2602,-0.2602,-0.2602,-0.2603,0,-0.2505,-0.252,-0.26,-0.2607,-0.2631,-0.2701,-0.2716,-0.2752,-0.2791,-0.28,-0.2832,-0.2816,-0.2807,-0.2755,-0.2708,-0.257,-0.2624,-0.2485,-0.2456,-0.2391,-0.2375,-0.233,-0.237,-0.2599,-0.26,-0.2601,-0.2601,0,-0.2426,-0.2483,-0.251,-0.2584,-0.2603,-0.2616,-0.2679,-0.2689,-0.2747,-0.2759,-0.2765,-0.279,-0.2716,-0.2674,-0.2596,-0.2531,-0.2379,-0.2367,-0.2282,-0.2242,-0.2068,-0.2115,-0.201,-0.1951,-0.2182,-0.2178,-0.2175,0,-0.2383,-0.2392,-0.2463,-0.2471,-0.2494,-0.2531,-0.255,-0.2638,-0.2659,-0.2724,-0.2718,-0.268,-0.2609,-0.2445,-0.2323,-0.2182,-0.2218,-0.2028,-0.2042,-0.2018,-0.2051,-0.2103,-0.2067,-0.1919,-0.1914,-0.191,-0.1907,0,-0.2286,-0.2313,-0.2332,-0.2352,-0.2375,-0.2406,-0.2453,-0.2468,-0.2572,-0.2577,-0.2563,-0.2515,-0.2377,-0.2179,-0.2012,-0.193,-0.1981,-0.1936,-0.1941,-0.1846,-0.1869,-0.1812,-0.2024,-0.1871,-0.1874,-0.1877,-0.1879,-0.188,-0.219,-0.2178,-0.2203,-0.2209,-0.2241,-0.2257,-0.2238,-0.2304,-0.2308,-0.2298,-0.2346,-0.2225,-0.2093,-0.1823,-0.1733,-0.1573,-0.1671,-0.1542,-0.1603,-0.1659,-0.1586,-0.1698,-0.1492,-0.1493,-0.1494,-0.1495,-0.1496,0,-0.2053,-0.2052,-0.2056,-0.206,-0.2037,-0.2108,-0.2145,-0.2093,-0.2051,-0.2045,-0.1985,-0.1825,-0.1639,-0.155,-0.1382,-0.1289,-0.1291,-0.1276,-0.1361,-0.1341,-0.1448,-0.1417,-0.1147,-0.1147,-0.1147,-0.1148,-0.1148,-0.1148,-0.1974,-0.1923,-0.1931,-0.1846,-0.185,-0.1792,-0.1786,-0.1728,-0.1686,-0.1519,-0.1441,-0.136,-0.1354,-0.1416,-0.1284,-0.1208,-0.121,-0.1159,-0.12,-0.1325,-0.1357,-0.1388,-0.1366,-0.109,-0.109,-0.1041,-0.104,-0.104]},{"header":{"parameterUnit":"m.s-1","parameterCategory":2,"la1":30.2991,"la2":30.254,"lo1":-89.0895,"lo2":-89.0444,"dy":0.0017,"dx":0.0017,"nx":28,"ny":28,"refTime":"2024-04-12T21:00:00:Z","depth":"0","parameterNumber":3,"parameterNumberName":"V-component_of_CURRENTS"},"data":[0,0,0,0,0,0,0,0,0,0,0,0,0,0,0,0,0,0,0,0,0,0,0,0,0,0,0,0,0,0,0,0,0,0,0,0,0,0,0,0,0,0,0,0,0,0,0,0,0,0,0,0,0,0,0,0,0,0,-0.0385,-0.0384,0,-0.0306,-0.0305,-0.0304,-0.0249,-0.0249,-0.0248,-0.0248,-0.0113,-0.011,-0.0107,0,0,0,0,0,0,0,0,0,0,0,0,0,-0.0442,-0.0442,-0.0385,-0.0384,-0.0383,-0.0306,-0.0305,-0.0304,-0.0249,-0.0249,-0.0248,-0.0248,-0.0114,-0.011,-0.0106,0,0,0,0,0,0,0,0,0,0,0,0,0,-0.0396,-0.0442,-0.0386,-0.0347,-0.0343,-0.0306,-0.0305,-0.0303,-0.0249,-0.0249,-0.0248,-0.0248,-0.0115,-0.0111,-0.0106,-0.0088,0,0,-0.0091,-0.0089,0,0,0,0,0,0,0,0,-0.0399,-0.0394,-0.0354,-0.035,-0.0345,-0.0287,-0.0275,-0.0228,-0.0249,-0.0285,-0.0248,-0.0247,-0.0166,-0.0157,-0.0144,-0.0081,-0.0075,-0.009,-0.0088,-0.0085,-0.0084,0,0,0,0,0,0,0,-0.0402,-0.0397,-0.0354,-0.0353,-0.0347,-0.0317,-0.0311,-0.0266,-0.0229,-0.0282,-0.0277,-0.0269,-0.0164,-0.0149,-0.0141,-0.0073,-0.0091,-0.0086,-0.0083,-0.0081,0.0018,0.0018,0,0,0,0,0,0,-0.0415,-0.04,-0.0356,-0.0351,-0.0371,-0.0317,-0.0309,-0.0306,-0.023,-0.0219,-0.027,-0.0267,-0.0158,-0.0146,-0.0136,-0.0116,-0.0085,-0.0081,-0.0078,0.0018,0.0018,0.0018,0,0,0,0,0,0,-0.0417,-0.0412,-0.0359,-0.0374,-0.0365,-0.0317,-0.0313,-0.0305,-0.029,-0.0222,-0.0209,-0.0264,-0.0157,-0.0142,-0.0105,-0.011,-0.0079,-0.0074,0.0019,0.0018,0.0018,-0.0073,0,0,0,0,0,0,-0.0419,-0.0414,-0.0418,-0.0375,-0.0364,-0.0346,-0.0314,-0.0304,-0.0286,-0.0281,-0.0212,-0.0199,-0.0155,-0.0113,-0.01,-0.0103,-0.0071,0.0019,0.0018,0.0018,-0.0069,-0.0076,-0.0082,0,0,0,0,0,-0.0421,-0.0431,-0.0419,-0.0413,-0.0371,-0.0347,-0.0339,-0.0303,-0.0286,-0.0286,-0.0242,-0.0201,-0.0106,-0.0109,-0.0094,-0.0096,0.0019,0.0019,0.0018,-0.0066,-0.0075,-0.0082,0,0,0,0,0,0,-0.0456,-0.0425,-0.0411,-0.041,-0.0385,-0.0338,-0.0334,-0.0309,-0.0275,-0.027,-0.0206,-0.019,-0.0159,-0.0115,-0.012,-0.0068,-0.0036,-0.0034,-0.0105,-0.0112,-0.0119,-0.0129,-0.0067,0,0,0,0,0,-0.0468,-0.0468,-0.0431,-0.0432,-0.0422,-0.038,-0.0366,-0.0343,-0.0305,-0.029,-0.0242,-0.0192,-0.015,-0.0124,-0.0081,-0.0052,0.0009,-0.0042,-0.0049,-0.0054,-0.0053,0.0021,0.0022,0.0016,0.0016,0.0016,0,0,-0.048,-0.0464,-0.0463,-0.0439,-0.0417,-0.0416,-0.037,-0.0356,-0.0353,-0.028,-0.0261,-0.0213,-0.0149,-0.0121,-0.0102,-0.0084,-0.0018,-0.0055,-0.0061,-0.0055,0.0021,0.0022,0.0022,0.0015,0.0015,0.0015,0,0,-0.0515,-0.0494,-0.0511,-0.0496,-0.0471,-0.0444,-0.0444,-0.0403,-0.0382,-0.0358,-0.0307,-0.0264,-0.0201,-0.0156,-0.0125,-0.0138,-0.0057,-0.0124,-0.0159,-0.0088,-0.0086,-0.0085,0.0001,0.0011,-0.0123,-0.0123,-0.0123,0,-0.0533,-0.0549,-0.0511,-0.0525,-0.052,-0.0463,-0.048,-0.0451,-0.0403,-0.0384,-0.0365,-0.0266,-0.0217,-0.0171,-0.0179,-0.0152,-0.0092,-0.0139,-0.0096,-0.0093,-0.009,-0.0002,0.001,-0.0128,-0.0127,-0.0127,-0.0126,0,-0.0581,-0.0594,-0.0602,-0.0602,-0.059,-0.0594,-0.0552,-0.0533,-0.0498,-0.046,-0.0409,-0.0338,-0.0276,-0.0257,-0.0222,-0.0176,-0.0135,-0.0118,-0.0081,-0.0095,-0.0001,0.0014,-0.0134,-0.0133,-0.0131,-0.013,0,0,-0.0622,-0.0636,-0.0641,-0.0657,-0.0633,-0.0628,-0.0619,-0.0588,-0.057,-0.0515,-0.0482,-0.0416,-0.0363,-0.0324,-0.0267,-0.0208,-0.0136,-0.016,-0.0154,-0.0081,0.0039,0.0099,0.0121,-0.0112,-0.011,-0.0109,0.0097,0,-0.0673,-0.0727,-0.0711,-0.0751,-0.0772,-0.0721,-0.0712,-0.0672,-0.062,-0.057,-0.0485,-0.0431,-0.0392,-0.0356,-0.0294,-0.0171,-0.0103,-0.0192,0.0047,0.0055,0.0105,0.0138,0.017,0.0358,0.0112,0.0115,0.0116,0,-0.0729,-0.0758,-0.0814,-0.0826,-0.0828,-0.0834,-0.0798,-0.0785,-0.0696,-0.0649,-0.0575,-0.0495,-0.0397,-0.0365,-0.0162,-0.0219,-0.0103,-0.0007,0.0003,0.0101,0.0142,0.0333,0.0395,0.0532,0.014,0.0138,0.0136,0,-0.0785,-0.0828,-0.0876,-0.0883,-0.0883,-0.0887,-0.0876,-0.081,-0.0785,-0.0693,-0.0643,-0.0521,-0.043,-0.0291,-0.0093,-0.0124,0.0148,0.0133,0.0302,0.0308,0.0406,0.0417,0.0624,0.0275,0.0275,0.0274,0.0274,0,-0.0849,-0.0887,-0.0908,-0.0935,-0.0973,-0.0948,-0.0952,-0.0916,-0.0843,-0.079,-0.0688,-0.0591,-0.0406,-0.0227,-0.0081,0.0176,0.0166,0.0315,0.0369,0.0376,0.0382,0.0561,0.0599,0.0282,0.028,0.0279,0.0277,0,-0.0904,-0.0922,-0.0979,-0.1,-0.1005,-0.1033,-0.1013,-0.1002,-0.0925,-0.0846,-0.0814,-0.0618,-0.0371,-0.0167,0.0106,0.0219,0.0539,0.0525,0.053,0.0579,0.0822,0.0852,0.1122,0.1226,0.0731,0.0734,0.0736,0,-0.0938,-0.0976,-0.1031,-0.1063,-0.1077,-0.1101,-0.1105,-0.1053,-0.1018,-0.084,-0.079,-0.0542,-0.0322,0.0098,0.0339,0.0628,0.0713,0.0807,0.0739,0.0865,0.0938,0.0949,0.1017,0.0845,0.0848,0.0851,0.0853,0,-0.0994,-0.1013,-0.1059,-0.1127,-0.1157,-0.1182,-0.1172,-0.1145,-0.1043,-0.0924,-0.0692,-0.05,-0.0094,0.0271,0.0615,0.0766,0.0907,0.0865,0.1003,0.1056,0.1078,0.1194,0.0687,0.0875,0.0872,0.0871,0.087,0.0869,-0.1022,-0.107,-0.1124,-0.1184,-0.1222,-0.1228,-0.1194,-0.1105,-0.0994,-0.0704,-0.0604,-0.0206,0.0178,0.0682,0.0865,0.1193,0.1133,0.1264,0.1298,0.1305,0.1379,0.0924,0.1155,0.1154,0.1154,0.1154,0.1153,0,-0.1045,-0.1099,-0.1168,-0.1231,-0.1268,-0.1273,-0.1204,-0.1065,-0.0843,-0.054,-0.0259,0.0252,0.0659,0.102,0.1416,0.1599,0.163,0.1682,0.1702,0.1757,0.1378,0.1354,0.163,0.163,0.163,0.163,0.163,0.163,-0.1058,-0.1128,-0.117,-0.1242,-0.1278,-0.1237,-0.1167,-0.0854,-0.0572,-0.0016,0.0387,0.0651,0.1033,0.1548,0.1921,0.1959,0.2122,0.2105,0.2207,0.192,0.1882,0.1846,0.1835,0.2208,0.2208,0.2575,0.2579,0.2581]}],[{"header":{"parameterUnit":"m.s-1","parameterCategory":2,"la1":30.2991,"la2":30.254,"lo1":-89.0895,"lo2":-89.0444,"dy":0.0017,"dx":0.0017,"nx":28,"ny":28,"refTime":"2024-04-12T21:00:00:Z","depth":"2","parameterNumber":2,"parameterNumberName":"U-component_of_CURRENTS"},"data":[0,0,0,0,0,0,0,0,0,0,0,0,0,0,0,0,0,0,0,0,0,0,0,0,0,0,0,0,0,0,0,0,0,0,0,0,0,0,0,0,0,0,0,0,0,0,0,0,0,0,0,0,0,0,0,0,0,0,-0.2395,-0.2396,0,-0.242,-0.242,-0.242,-0.2419,-0.2418,-0.2418,-0.2418,-0.2419,-0.2419,-0.242,0,0,0,0,0,0,0,0,0,0,0,0,0,-0.234,-0.234,-0.2395,-0.2396,-0.2396,-0.242,-0.242,-0.242,-0.2419,-0.2418,-0.2418,-0.2418,-0.2419,-0.2419,-0.242,0,0,0,0,0,0,0,0,0,0,0,0,0,-0.2362,-0.2341,-0.2395,-0.24,-0.2401,-0.242,-0.242,-0.242,-0.2419,-0.2418,-0.2418,-0.2418,-0.2419,-0.2419,-0.242,-0.2425,0,0,-0.242,-0.2421,0,0,0,0,0,0,0,0,-0.236,-0.2363,-0.2399,-0.24,-0.2401,-0.2418,-0.2401,-0.2421,-0.2419,-0.2409,-0.2418,-0.2418,-0.2418,-0.2419,-0.2421,-0.2426,-0.2426,-0.242,-0.2421,-0.2421,-0.2421,0,0,0,0,0,0,0,-0.2359,-0.2362,-0.2403,-0.2399,-0.2401,-0.2399,-0.2401,-0.2404,-0.2413,-0.241,-0.2411,-0.2417,-0.2418,-0.2421,-0.2421,-0.2426,-0.242,-0.2421,-0.2421,-0.2421,-0.2427,-0.2427,0,0,0,0,0,0,-0.2361,-0.2361,-0.2402,-0.2403,-0.2382,-0.24,-0.2403,-0.2411,-0.2413,-0.2414,-0.2417,-0.2417,-0.242,-0.242,-0.2421,-0.2438,-0.2421,-0.2421,-0.2421,-0.2427,-0.2427,-0.2427,0,0,0,0,0,0,-0.236,-0.2365,-0.2401,-0.2384,-0.2389,-0.2401,-0.241,-0.2411,-0.2418,-0.2419,-0.2419,-0.2423,-0.242,-0.242,-0.2425,-0.2437,-0.2421,-0.2421,-0.2427,-0.2427,-0.2427,-0.2465,0,0,0,0,0,0,-0.2358,-0.2364,-0.2368,-0.2385,-0.239,-0.2417,-0.2411,-0.2412,-0.2423,-0.2423,-0.2424,-0.2424,-0.242,-0.2425,-0.2425,-0.2437,-0.2421,-0.2427,-0.2427,-0.2427,-0.2464,-0.2467,-0.2469,0,0,0,0,0,-0.2356,-0.2365,-0.2368,-0.2373,-0.2396,-0.2418,-0.242,-0.2426,-0.2424,-0.243,-0.2427,-0.2424,-0.2425,-0.2425,-0.2426,-0.2438,-0.2427,-0.2427,-0.2427,-0.2463,-0.2466,-0.2469,0,0,0,0,0,0,-0.2343,-0.2367,-0.237,-0.2385,-0.2402,-0.2418,-0.2423,-0.243,-0.2434,-0.2431,-0.2428,-0.2428,-0.2436,-0.2429,-0.2429,-0.2438,-0.2424,-0.2424,-0.2451,-0.2454,-0.2456,-0.2454,-0.2422,0,0,0,0,0,-0.2343,-0.2352,-0.2377,-0.2387,-0.2396,-0.241,-0.2419,-0.2426,-0.2434,-0.2436,-0.2438,-0.2435,-0.2436,-0.2438,-0.2437,-0.2445,-0.2423,-0.2451,-0.2453,-0.2456,-0.2453,-0.2433,-0.2433,-0.2428,-0.2428,-0.2428,0,0,-0.234,-0.2353,-0.2359,-0.2384,-0.2394,-0.2415,-0.2414,-0.2431,-0.2447,-0.2435,-0.2449,-0.2445,-0.2439,-0.2448,-0.245,-0.2445,-0.2443,-0.2456,-0.2458,-0.2454,-0.2433,-0.2434,-0.2434,-0.2428,-0.2428,-0.2428,0,0,-0.2342,-0.2353,-0.2363,-0.2382,-0.2404,-0.2417,-0.2425,-0.2446,-0.2452,-0.2468,-0.2461,-0.2461,-0.2468,-0.2465,-0.2464,-0.2477,-0.2457,-0.2479,-0.2494,-0.2475,-0.2475,-0.2475,-0.2441,-0.2437,-0.2481,-0.2482,-0.2482,0,-0.2339,-0.2355,-0.237,-0.2389,-0.2404,-0.2421,-0.244,-0.2454,-0.2473,-0.2478,-0.2475,-0.2478,-0.2475,-0.2481,-0.2486,-0.2484,-0.2464,-0.2487,-0.2479,-0.2478,-0.2478,-0.2442,-0.2438,-0.2483,-0.2483,-0.2483,-0.2483,0,-0.2349,-0.2368,-0.2376,-0.2405,-0.2426,-0.2443,-0.2471,-0.2485,-0.2494,-0.2504,-0.2512,-0.2506,-0.2505,-0.2507,-0.2504,-0.2503,-0.2486,-0.2485,-0.2474,-0.2481,-0.2443,-0.2438,-0.2486,-0.2485,-0.2485,-0.2484,0,0,-0.2322,-0.2374,-0.2375,-0.2393,-0.2434,-0.2451,-0.2481,-0.2507,-0.2521,-0.2533,-0.2544,-0.2545,-0.2538,-0.2535,-0.2529,-0.2516,-0.2496,-0.2504,-0.2502,-0.2473,-0.2443,-0.2344,-0.2329,-0.2498,-0.2497,-0.2497,-0.2415,0,-0.2322,-0.2359,-0.2386,-0.242,-0.2441,-0.2473,-0.2501,-0.2528,-0.2543,-0.2559,-0.2553,-0.256,-0.2551,-0.2551,-0.2538,-0.2512,-0.2486,-0.2517,-0.2436,-0.2433,-0.2348,-0.2321,-0.2166,-0.2073,-0.241,-0.2409,-0.2409,0,-0.2315,-0.2342,-0.2376,-0.2429,-0.2441,-0.2465,-0.2504,-0.2531,-0.2562,-0.2574,-0.258,-0.258,-0.257,-0.2558,-0.2506,-0.2529,-0.2484,-0.2457,-0.2453,-0.2343,-0.2325,-0.2121,-0.2051,-0.24,-0.2401,-0.2401,-0.2402,0,-0.2274,-0.2331,-0.2355,-0.2373,-0.2437,-0.2454,-0.2486,-0.2528,-0.2546,-0.2578,-0.2586,-0.2584,-0.2571,-0.2533,-0.2475,-0.2494,-0.2402,-0.242,-0.2283,-0.2276,-0.2117,-0.2095,-0.2366,-0.2366,-0.2366,-0.2366,-0.2366,0,-0.2254,-0.2269,-0.2338,-0.2347,-0.2373,-0.2432,-0.2455,-0.2491,-0.2535,-0.2541,-0.2582,-0.2568,-0.2564,-0.2516,-0.247,-0.2345,-0.2391,-0.2268,-0.2243,-0.2123,-0.2105,-0.2372,-0.2374,-0.2363,-0.2364,-0.2364,-0.2365,0,-0.2191,-0.2242,-0.2265,-0.2331,-0.2351,-0.2364,-0.2426,-0.2439,-0.25,-0.2508,-0.2516,-0.2545,-0.2477,-0.2443,-0.2369,-0.2313,-0.2224,-0.2165,-0.2016,-0.1975,-0.2115,-0.212,-0.2013,-0.2008,-0.2005,-0.2002,-0.1999,0,-0.2158,-0.2166,-0.2228,-0.2235,-0.2258,-0.2294,-0.2313,-0.2397,-0.2415,-0.2469,-0.2459,-0.243,-0.2358,-0.2221,-0.2115,-0.1991,-0.2091,-0.18,-0.1806,-0.2089,-0.2077,-0.2088,-0.2097,-0.161,-0.1605,-0.16,-0.1597,0,-0.2079,-0.2102,-0.2119,-0.2135,-0.2154,-0.2181,-0.2223,-0.2233,-0.2318,-0.2317,-0.2289,-0.224,-0.2125,-0.1921,-0.1789,-0.1711,-0.1815,-0.1703,-0.202,-0.1727,-0.1704,-0.1694,-0.1718,-0.1556,-0.156,-0.1563,-0.1565,-0.1567,-0.1999,-0.1987,-0.2007,-0.2009,-0.2036,-0.204,-0.1997,-0.2048,-0.2035,-0.1987,-0.2053,-0.1908,-0.1879,-0.1565,-0.1455,-0.1375,-0.1505,-0.1458,-0.1475,-0.1496,-0.1467,-0.1439,-0.1236,-0.1238,-0.124,-0.1241,-0.1243,0,-0.1879,-0.1876,-0.1876,-0.1868,-0.1836,-0.19,-0.1902,-0.182,-0.1731,-0.1728,-0.1653,-0.1436,-0.1289,-0.1263,-0.1062,-0.1021,-0.1039,-0.0994,-0.1031,-0.107,-0.1105,-0.1061,-0.0719,-0.0718,-0.0716,-0.0715,0,0,-0.1811,-0.1762,-0.1762,-0.1664,-0.1652,-0.154,-0.1497,-0.14,-0.1352,-0.1215,-0.1134,-0.1188,-0.1213,-0.0965,-0.0906,-0.0779,-0.092,-0.0736,-0.1154,-0.1236,-0.127,-0.1366,-0.134,0,0,0,0,0]},{"header":{"parameterUnit":"m.s-1","parameterCategory":2,"la1":30.2991,"la2":30.254,"lo1":-89.0895,"lo2":-89.0444,"dy":0.0017,"dx":0.0017,"nx":28,"ny":28,"refTime":"2024-04-12T21:00:00:Z","depth":"2","parameterNumber":3,"parameterNumberName":"V-component_of_CURRENTS"},"data":[0,0,0,0,0,0,0,0,0,0,0,0,0,0,0,0,0,0,0,0,0,0,0,0,0,0,0,0,0,0,0,0,0,0,0,0,0,0,0,0,0,0,0,0,0,0,0,0,0,0,0,0,0,0,0,0,0,0,-0.0443,-0.0442,0,-0.0369,-0.0368,-0.0367,-0.0318,-0.0318,-0.0317,-0.0317,-0.0199,-0.0196,-0.0193,0,0,0,0,0,0,0,0,0,0,0,0,0,-0.0494,-0.0494,-0.0443,-0.0442,-0.0441,-0.0369,-0.0368,-0.0367,-0.0318,-0.0318,-0.0317,-0.0317,-0.0199,-0.0196,-0.0193,0,0,0,0,0,0,0,0,0,0,0,0,0,-0.0451,-0.0494,-0.0443,-0.0408,-0.0404,-0.0369,-0.0368,-0.0366,-0.0318,-0.0318,-0.0317,-0.0317,-0.0201,-0.0196,-0.0192,-0.0175,0,0,-0.0179,-0.0177,0,0,0,0,0,0,0,0,-0.0454,-0.0449,-0.0414,-0.0411,-0.0406,-0.0352,-0.0342,-0.03,-0.0318,-0.0351,-0.0317,-0.0317,-0.0246,-0.0238,-0.0226,-0.0169,-0.0164,-0.0179,-0.0176,-0.0174,-0.0173,0,0,0,0,0,0,0,-0.0457,-0.0452,-0.0413,-0.0413,-0.0408,-0.038,-0.0373,-0.0334,-0.0301,-0.0348,-0.0344,-0.0336,-0.0244,-0.023,-0.0222,-0.0163,-0.0179,-0.0175,-0.0172,-0.0171,-0.0072,-0.0072,0,0,0,0,0,0,-0.0469,-0.0455,-0.0416,-0.0411,-0.0429,-0.0379,-0.0372,-0.037,-0.0302,-0.0292,-0.0337,-0.0334,-0.0238,-0.0228,-0.0218,-0.0189,-0.0174,-0.017,-0.0168,-0.0072,-0.0072,-0.0072,0,0,0,0,0,0,-0.0471,-0.0467,-0.0419,-0.0431,-0.0423,-0.0379,-0.0377,-0.0369,-0.0355,-0.0294,-0.0283,-0.0331,-0.0237,-0.0224,-0.0188,-0.0184,-0.0168,-0.0164,-0.0072,-0.0072,-0.0072,-0.0134,0,0,0,0,0,0,-0.0473,-0.0468,-0.0472,-0.0432,-0.0423,-0.0404,-0.0377,-0.0368,-0.035,-0.0346,-0.0286,-0.0274,-0.0235,-0.0195,-0.0184,-0.0178,-0.0161,-0.0072,-0.0072,-0.0072,-0.0132,-0.0136,-0.0139,0,0,0,0,0,-0.0475,-0.0483,-0.0473,-0.0468,-0.043,-0.0405,-0.0397,-0.0364,-0.0351,-0.0349,-0.0309,-0.0276,-0.0186,-0.0192,-0.0179,-0.0171,-0.0072,-0.0072,-0.0072,-0.013,-0.0135,-0.0139,0,0,0,0,0,0,-0.0505,-0.0478,-0.0466,-0.0465,-0.044,-0.0396,-0.0392,-0.0369,-0.0337,-0.0333,-0.0277,-0.0263,-0.0231,-0.0194,-0.0201,-0.0142,-0.0123,-0.012,-0.0171,-0.0175,-0.0179,-0.019,-0.0157,0,0,0,0,0,-0.0516,-0.0517,-0.0482,-0.0482,-0.0473,-0.0434,-0.0421,-0.0399,-0.0364,-0.035,-0.0307,-0.0261,-0.022,-0.0194,-0.0155,-0.0123,-0.0078,-0.0109,-0.0113,-0.0116,-0.0116,-0.0052,-0.005,-0.0072,-0.0072,-0.0072,0,0,-0.0527,-0.0513,-0.0512,-0.0489,-0.0468,-0.046,-0.0425,-0.041,-0.04,-0.0341,-0.0317,-0.0275,-0.0216,-0.0183,-0.0164,-0.015,-0.0086,-0.0116,-0.012,-0.0117,-0.0052,-0.0049,-0.0047,-0.0072,-0.0072,-0.0072,0,0,-0.0553,-0.0539,-0.0549,-0.0534,-0.0509,-0.0483,-0.0482,-0.0443,-0.0422,-0.0395,-0.035,-0.0307,-0.0249,-0.0202,-0.0171,-0.017,-0.0113,-0.0159,-0.0179,-0.0118,-0.0115,-0.0113,-0.0056,-0.0047,-0.0155,-0.0155,-0.0155,0,-0.0568,-0.0577,-0.0547,-0.0553,-0.0544,-0.0498,-0.0504,-0.0476,-0.0429,-0.0409,-0.0397,-0.0302,-0.0255,-0.02,-0.0202,-0.0178,-0.0138,-0.017,-0.0123,-0.012,-0.0116,-0.0057,-0.0048,-0.0158,-0.0158,-0.0158,-0.0157,0,-0.0599,-0.0607,-0.0612,-0.0604,-0.0589,-0.0588,-0.0546,-0.0527,-0.0497,-0.0461,-0.0409,-0.0344,-0.0285,-0.0262,-0.0231,-0.018,-0.0159,-0.0141,-0.0115,-0.0117,-0.0056,-0.0044,-0.0163,-0.0162,-0.0161,-0.016,0,0,-0.0633,-0.0635,-0.0638,-0.0647,-0.0618,-0.0611,-0.0591,-0.0556,-0.0539,-0.0486,-0.0454,-0.0381,-0.0341,-0.0303,-0.0251,-0.0195,-0.0136,-0.0164,-0.0159,-0.0113,-0.0002,0.0022,0.0037,-0.0113,-0.0111,-0.011,0.003,0,-0.0668,-0.0701,-0.0682,-0.0704,-0.0715,-0.067,-0.0655,-0.0614,-0.0568,-0.0525,-0.0444,-0.0397,-0.0357,-0.0329,-0.0267,-0.0168,-0.0109,-0.0175,-0.0,0.0005,0.0021,0.005,0.0026,0.0149,0.0042,0.0043,0.0045,0,-0.0706,-0.0724,-0.0758,-0.0759,-0.0758,-0.0757,-0.0722,-0.0703,-0.0626,-0.0587,-0.0519,-0.0454,-0.0361,-0.0333,-0.0161,-0.0207,-0.0114,-0.0036,-0.0028,0.0024,0.005,0.0136,0.0175,0.0065,0.0063,0.0062,0.006,0,-0.0754,-0.0775,-0.0807,-0.0809,-0.0799,-0.0798,-0.0785,-0.0725,-0.0704,-0.0626,-0.0594,-0.0478,-0.0411,-0.0286,-0.0128,-0.0143,0.0064,0.0068,0.0182,0.0185,0.0215,0.0218,0.019,0.019,0.0189,0.0189,0.0189,0,-0.0802,-0.0827,-0.0837,-0.0856,-0.0885,-0.0854,-0.0859,-0.0824,-0.0764,-0.073,-0.0634,-0.057,-0.0396,-0.0257,-0.0128,0.0068,0.0071,0.0189,0.0227,0.0193,0.0191,0.0156,0.015,0.0194,0.0193,0.0192,0.0191,0,-0.085,-0.0858,-0.0899,-0.0909,-0.0913,-0.0936,-0.0922,-0.0917,-0.0853,-0.0803,-0.078,-0.0621,-0.0434,-0.0254,-0.0027,0.0077,0.0252,0.0319,0.0264,0.0293,0.0329,0.0319,0.0459,0.0461,0.0463,0.0465,0.0466,0,-0.0878,-0.0906,-0.0948,-0.0979,-0.0989,-0.1012,-0.1021,-0.0973,-0.0953,-0.0824,-0.0797,-0.061,-0.0457,-0.0121,0.0097,0.0338,0.0328,0.0441,0.0409,0.0337,0.036,0.0346,0.0334,0.043,0.0431,0.0432,0.0432,0,-0.0929,-0.0945,-0.0982,-0.1047,-0.1079,-0.1107,-0.1109,-0.1098,-0.1018,-0.0943,-0.0793,-0.066,-0.0336,-0.0059,0.0236,0.0362,0.0396,0.0463,0.043,0.0353,0.0318,0.0337,0.0324,0.0438,0.0438,0.0437,0.0437,0.0437,-0.0962,-0.1006,-0.1054,-0.1113,-0.1156,-0.1179,-0.1181,-0.1146,-0.1088,-0.094,-0.0803,-0.0573,-0.0314,0.0119,0.0329,0.0505,0.0493,0.0531,0.0525,0.052,0.0479,0.0448,0.0586,0.0586,0.0586,0.0586,0.0586,0,-0.0996,-0.1045,-0.111,-0.1177,-0.1225,-0.1227,-0.1218,-0.1179,-0.1091,-0.093,-0.0757,-0.0443,-0.0133,0.0125,0.0423,0.0595,0.0566,0.0608,0.0544,0.0537,0.0531,0.0487,0.0598,0.0599,0.0599,0.06,0,0,-0.1018,-0.1085,-0.112,-0.1211,-0.1253,-0.1271,-0.1253,-0.1174,-0.1051,-0.0859,-0.0678,-0.0446,-0.0123,0.0094,0.0317,0.0472,0.0449,0.0472,0.0443,0.0333,0.0325,0.0468,0.0392,0,0,0,0,0]}],[{"header":{"parameterUnit":"m.s-1","parameterCategory":2,"la1":30.2991,"la2":30.254,"lo1":-89.0895,"lo2":-89.0444,"dy":0.0017,"dx":0.0017,"nx":28,"ny":28,"refTime":"2024-04-12T21:00:00:Z","depth":"4","parameterNumber":2,"parameterNumberName":"U-component_of_CURRENTS"},"data":[0,0,0,0,0,0,0,0,0,0,0,0,0,0,0,0,0,0,0,0,0,0,0,0,0,0,0,0,0,0,0,0,0,0,0,0,0,0,0,0,0,0,0,0,0,0,0,0,0,0,0,0,0,0,0,0,0,0,-0.1676,-0.1677,0,-0.1739,-0.1739,-0.174,-0.1792,-0.1793,-0.1793,-0.1794,-0.1871,-0.1872,-0.1874,0,0,0,0,0,0,0,0,0,0,0,0,0,-0.1598,-0.1599,-0.1676,-0.1677,-0.1677,-0.1738,-0.1739,-0.174,-0.1792,-0.1793,-0.1794,-0.1794,-0.1871,-0.1872,-0.1874,0,0,0,0,0,0,0,0,0,0,0,0,0,-0.1642,-0.16,-0.1675,-0.1712,-0.1716,-0.1738,-0.1739,-0.174,-0.1792,-0.1793,-0.1794,-0.1795,-0.187,-0.1872,-0.1874,-0.1867,0,0,-0.1881,-0.1882,0,0,0,0,0,0,0,0,-0.164,-0.1645,-0.1706,-0.1709,-0.1714,-0.176,-0.174,-0.1784,-0.1792,-0.1761,-0.1794,-0.1795,-0.1835,-0.184,-0.1848,-0.187,-0.1874,-0.1881,-0.1882,-0.1883,-0.1884,0,0,0,0,0,0,0,-0.1637,-0.1643,-0.1699,-0.1706,-0.1712,-0.1724,-0.1732,-0.1749,-0.1791,-0.1764,-0.1768,-0.1777,-0.1838,-0.1845,-0.185,-0.1875,-0.1881,-0.1883,-0.1884,-0.1885,-0.1958,-0.1959,0,0,0,0,0,0,-0.1631,-0.164,-0.1697,-0.1701,-0.168,-0.1725,-0.1733,-0.1743,-0.1791,-0.1799,-0.1776,-0.178,-0.1841,-0.1847,-0.1853,-0.1921,-0.1883,-0.1885,-0.1886,-0.1958,-0.1958,-0.1959,0,0,0,0,0,0,-0.1629,-0.1635,-0.1695,-0.1673,-0.1682,-0.1725,-0.1736,-0.1744,-0.1784,-0.18,-0.1809,-0.1813,-0.1842,-0.185,-0.1894,-0.1922,-0.1886,-0.1888,-0.1957,-0.1958,-0.1959,-0.201,0,0,0,0,0,0,-0.1626,-0.1634,-0.1653,-0.1672,-0.1683,-0.173,-0.1735,-0.1744,-0.1787,-0.1792,-0.1834,-0.184,-0.1844,-0.1891,-0.1896,-0.1924,-0.1889,-0.1956,-0.1957,-0.1958,-0.2008,-0.2013,-0.2018,0,0,0,0,0,-0.1623,-0.1643,-0.1654,-0.1662,-0.1703,-0.1731,-0.1738,-0.1771,-0.1788,-0.181,-0.1838,-0.184,-0.1902,-0.1893,-0.1899,-0.1929,-0.1955,-0.1957,-0.1958,-0.2006,-0.2012,-0.2018,0,0,0,0,0,0,-0.1623,-0.1651,-0.1663,-0.1692,-0.1719,-0.1741,-0.1769,-0.1788,-0.1826,-0.1841,-0.1854,-0.1862,-0.1908,-0.1909,-0.1898,-0.1951,-0.1927,-0.193,-0.1961,-0.1967,-0.1972,-0.1961,-0.1891,0,0,0,0,0,-0.1629,-0.1652,-0.1677,-0.1704,-0.1719,-0.1749,-0.1771,-0.1793,-0.1822,-0.1843,-0.187,-0.1894,-0.1912,-0.1934,-0.1949,-0.1984,-0.1958,-0.2003,-0.2008,-0.2012,-0.2006,-0.1995,-0.1998,-0.1964,-0.1964,-0.1964,0,0,-0.1639,-0.1656,-0.1671,-0.1706,-0.173,-0.176,-0.1766,-0.1808,-0.1839,-0.1843,-0.1904,-0.1916,-0.1924,-0.1961,-0.1981,-0.1972,-0.2007,-0.2014,-0.2018,-0.2009,-0.1997,-0.2,-0.2003,-0.1965,-0.1965,-0.1965,0,0,-0.1657,-0.1683,-0.1706,-0.1731,-0.1773,-0.1789,-0.1808,-0.1848,-0.1877,-0.1925,-0.1932,-0.1959,-0.2002,-0.2006,-0.2012,-0.2051,-0.2031,-0.2064,-0.2088,-0.2079,-0.2081,-0.2083,-0.2048,-0.2046,-0.207,-0.2071,-0.2071,0,-0.167,-0.1697,-0.1719,-0.1748,-0.1773,-0.1806,-0.1838,-0.1868,-0.1921,-0.194,-0.1955,-0.2004,-0.2017,-0.2042,-0.2057,-0.2063,-0.2046,-0.2069,-0.2085,-0.2086,-0.2087,-0.205,-0.2048,-0.2073,-0.2073,-0.2073,-0.2072,0,-0.1694,-0.173,-0.1748,-0.1792,-0.1823,-0.1857,-0.1895,-0.1936,-0.1974,-0.1996,-0.2043,-0.2057,-0.208,-0.2093,-0.2091,-0.211,-0.2091,-0.209,-0.207,-0.2094,-0.2053,-0.205,-0.2077,-0.2076,-0.2075,-0.2075,0,0,-0.1681,-0.1752,-0.1761,-0.179,-0.185,-0.1873,-0.1929,-0.1974,-0.2007,-0.2057,-0.2091,-0.2122,-0.2129,-0.2134,-0.2137,-0.2134,-0.2128,-0.2123,-0.2122,-0.2087,-0.2092,-0.1955,-0.1938,-0.2139,-0.2139,-0.2139,-0.2058,0,-0.1695,-0.175,-0.1784,-0.1844,-0.1874,-0.1921,-0.1966,-0.2014,-0.2054,-0.2096,-0.2113,-0.2147,-0.2146,-0.2163,-0.2161,-0.214,-0.2123,-0.2149,-0.2074,-0.2071,-0.1946,-0.1931,-0.2139,-0.2055,-0.2054,-0.2053,-0.2053,0,-0.1697,-0.1735,-0.1795,-0.1865,-0.1884,-0.1929,-0.1996,-0.2039,-0.2097,-0.2129,-0.2161,-0.2177,-0.2187,-0.2182,-0.2147,-0.2168,-0.213,-0.2107,-0.2103,-0.1952,-0.1927,-0.2027,-0.2046,-0.2047,-0.2047,-0.2048,-0.2048,0,-0.1656,-0.1738,-0.1786,-0.1812,-0.1898,-0.1938,-0.1985,-0.2051,-0.2083,-0.2147,-0.2169,-0.2192,-0.2197,-0.2172,-0.2124,-0.2143,-0.2066,-0.2083,-0.1917,-0.1907,-0.2034,-0.2033,-0.2042,-0.2042,-0.2042,-0.2042,-0.2042,0,-0.1633,-0.1674,-0.1777,-0.1801,-0.1856,-0.1926,-0.1982,-0.2034,-0.2098,-0.2112,-0.2179,-0.2171,-0.2197,-0.2159,-0.2121,-0.1988,-0.2057,-0.1899,-0.1872,-0.2056,-0.2059,-0.2031,-0.203,-0.2039,-0.204,-0.204,-0.2041,0,-0.1569,-0.1642,-0.1698,-0.1802,-0.1838,-0.1875,-0.1972,-0.1995,-0.2077,-0.2095,-0.2114,-0.2154,-0.2093,-0.2081,-0.2022,-0.1953,-0.1865,-0.18,-0.1974,-0.1961,-0.1714,-0.1718,-0.1606,-0.16,-0.1595,-0.1591,-0.1588,0,-0.1536,-0.1563,-0.1681,-0.1709,-0.176,-0.1831,-0.1865,-0.1968,-0.1984,-0.2048,-0.203,-0.202,-0.2018,-0.1809,-0.1832,-0.1729,-0.171,-0.1662,-0.1706,-0.1682,-0.1668,-0.1679,-0.1689,-0.158,-0.1579,-0.1578,-0.1577,0,-0.1462,-0.1521,-0.1563,-0.1623,-0.1673,-0.1718,-0.1778,-0.1775,-0.1861,-0.1959,-0.1875,-0.1825,-0.1747,-0.169,-0.1615,-0.1554,-0.17,-0.1613,-0.1623,-0.1664,-0.1651,-0.1643,-0.1659,-0.156,-0.1563,-0.1564,-0.1565,0,-0.1401,-0.1408,-0.1471,-0.1504,-0.1567,-0.1566,-0.1621,-0.1617,-0.1645,-0.1724,-0.1683,-0.167,-0.1711,-0.1594,-0.1528,-0.1453,-0.1438,-0.1403,-0.1425,-0.1443,-0.1429,-0.1391,-0.1174,0,0,0,0,0,-0.1325,-0.1314,-0.1342,-0.1363,-0.1418,-0.1448,-0.1537,-0.159,-0.1676,-0.1564,-0.1619,-0.1535,-0.1432,-0.1437,-0.132,-0.1461,-0.1452,-0.1322,-0.1428,-0.1469,-0.1488,-0.1487,0,0,0,0,0,0,-0.1269,-0.1293,-0.1294,-0.1236,-0.1217,-0.1254,-0.13,-0.1365,-0.1318,-0.141,-0.1354,-0.1433,-0.1351,-0.1448,-0.1278,-0.1279,-0.1314,-0.1334,-0.1329,-0.1458,-0.1475,-0.1491,-0.1497,0,0,0,0,0]},{"header":{"parameterUnit":"m.s-1","parameterCategory":2,"la1":30.2991,"la2":30.254,"lo1":-89.0895,"lo2":-89.0444,"dy":0.0017,"dx":0.0017,"nx":28,"ny":28,"refTime":"2024-04-12T21:00:00:Z","depth":"4","parameterNumber":3,"parameterNumberName":"V-component_of_CURRENTS"},"data":[0,0,0,0,0,0,0,0,0,0,0,0,0,0,0,0,0,0,0,0,0,0,0,0,0,0,0,0,0,0,0,0,0,0,0,0,0,0,0,0,0,0,0,0,0,0,0,0,0,0,0,0,0,0,0,0,0,0,-0.0335,-0.0335,0,-0.0287,-0.0286,-0.0286,-0.0257,-0.0257,-0.0257,-0.0257,-0.0175,-0.0173,-0.0171,0,0,0,0,0,0,0,0,0,0,0,0,0,-0.0362,-0.0362,-0.0335,-0.0335,-0.0334,-0.0287,-0.0286,-0.0286,-0.0257,-0.0257,-0.0257,-0.0257,-0.0176,-0.0174,-0.0171,0,0,0,0,0,0,0,0,0,0,0,0,0,-0.0336,-0.0362,-0.0335,-0.0314,-0.0312,-0.0287,-0.0286,-0.0285,-0.0257,-0.0257,-0.0257,-0.0257,-0.0177,-0.0174,-0.0171,-0.0155,0,0,-0.0161,-0.016,0,0,0,0,0,0,0,0,-0.0337,-0.0335,-0.0318,-0.0316,-0.0313,-0.0278,-0.0266,-0.024,-0.0257,-0.0278,-0.0257,-0.0256,-0.0207,-0.0201,-0.0193,-0.0151,-0.0147,-0.0161,-0.0159,-0.0158,-0.0157,0,0,0,0,0,0,0,-0.0339,-0.0336,-0.0316,-0.0317,-0.0314,-0.0293,-0.029,-0.0261,-0.0243,-0.0276,-0.0274,-0.0269,-0.0205,-0.0196,-0.019,-0.0146,-0.0161,-0.0158,-0.0156,-0.0155,-0.0077,-0.0076,0,0,0,0,0,0,-0.0348,-0.0338,-0.0317,-0.0314,-0.0325,-0.0293,-0.0289,-0.0289,-0.0244,-0.0237,-0.0269,-0.0268,-0.0201,-0.0194,-0.0187,-0.0162,-0.0158,-0.0155,-0.0153,-0.0077,-0.0076,-0.0076,0,0,0,0,0,0,-0.0349,-0.0347,-0.0319,-0.0325,-0.032,-0.0293,-0.0293,-0.0288,-0.0283,-0.0239,-0.0232,-0.0269,-0.0201,-0.0192,-0.0167,-0.0159,-0.0154,-0.0151,-0.0077,-0.0077,-0.0076,-0.0114,0,0,0,0,0,0,-0.035,-0.0348,-0.0355,-0.0326,-0.032,-0.0311,-0.0293,-0.0288,-0.028,-0.0278,-0.0236,-0.0228,-0.02,-0.0171,-0.0164,-0.0155,-0.0148,-0.0077,-0.0077,-0.0076,-0.0113,-0.0115,-0.0116,0,0,0,0,0,-0.0351,-0.036,-0.0355,-0.0353,-0.033,-0.0311,-0.0306,-0.0286,-0.028,-0.028,-0.0252,-0.023,-0.0163,-0.0169,-0.016,-0.015,-0.0078,-0.0077,-0.0076,-0.0112,-0.0114,-0.0116,0,0,0,0,0,0,-0.0374,-0.0357,-0.0351,-0.0354,-0.0338,-0.0306,-0.0306,-0.0292,-0.0271,-0.0271,-0.023,-0.022,-0.0195,-0.0168,-0.0176,-0.0125,-0.0115,-0.0113,-0.0145,-0.0147,-0.0149,-0.0157,-0.0146,0,0,0,0,0,-0.0383,-0.0388,-0.0364,-0.0368,-0.0362,-0.0337,-0.0329,-0.0315,-0.0291,-0.0282,-0.0252,-0.0218,-0.0184,-0.0165,-0.0136,-0.0109,-0.0079,-0.0095,-0.0097,-0.0098,-0.0098,-0.0045,-0.0042,-0.0074,-0.0074,-0.0075,0,0,-0.0393,-0.0385,-0.0388,-0.0374,-0.0361,-0.0353,-0.0332,-0.0324,-0.0314,-0.0275,-0.0257,-0.0227,-0.0181,-0.0152,-0.0137,-0.0128,-0.0075,-0.0098,-0.01,-0.0099,-0.0044,-0.0041,-0.0038,-0.0074,-0.0074,-0.0074,0,0,-0.0412,-0.041,-0.0417,-0.0407,-0.0392,-0.0373,-0.0374,-0.0347,-0.0332,-0.0313,-0.0279,-0.0244,-0.0202,-0.0159,-0.0133,-0.0126,-0.009,-0.0119,-0.0128,-0.0077,-0.0074,-0.0071,-0.0038,-0.0031,-0.0115,-0.0115,-0.0115,0,-0.0425,-0.0431,-0.0416,-0.0417,-0.0412,-0.0385,-0.0386,-0.0365,-0.0333,-0.0318,-0.0314,-0.0238,-0.0201,-0.0148,-0.0146,-0.0128,-0.0104,-0.0126,-0.008,-0.0076,-0.0072,-0.0038,-0.0031,-0.0116,-0.0116,-0.0116,-0.0116,0,-0.0442,-0.045,-0.0454,-0.0448,-0.0438,-0.0438,-0.0407,-0.0395,-0.0377,-0.035,-0.0308,-0.0257,-0.021,-0.0189,-0.0165,-0.0116,-0.011,-0.0093,-0.0077,-0.0071,-0.0036,-0.0027,-0.0119,-0.0118,-0.0118,-0.0117,0,0,-0.0465,-0.0467,-0.0471,-0.0477,-0.0457,-0.0452,-0.0434,-0.0406,-0.0397,-0.0357,-0.0333,-0.0266,-0.024,-0.0208,-0.0167,-0.0119,-0.0071,-0.0101,-0.0097,-0.0073,0.0027,0.0005,0.0012,-0.005,-0.0048,-0.0047,0.0037,0,-0.0484,-0.0505,-0.0492,-0.0506,-0.0512,-0.0484,-0.0471,-0.0442,-0.0412,-0.0383,-0.0316,-0.0283,-0.0245,-0.0228,-0.0171,-0.0098,-0.0049,-0.0096,0.0023,0.0026,0.0002,0.0021,-0.0042,0.0044,0.0046,0.0047,0.0048,0,-0.0503,-0.0516,-0.0539,-0.0542,-0.0542,-0.0544,-0.0524,-0.0509,-0.0454,-0.0429,-0.0375,-0.0329,-0.025,-0.0227,-0.009,-0.0125,-0.0054,0.0004,0.0009,0.0008,0.002,0.0041,0.0064,0.0063,0.0062,0.0061,0.006,0,-0.0531,-0.0547,-0.0571,-0.0573,-0.0569,-0.0574,-0.0569,-0.0528,-0.0518,-0.0462,-0.0447,-0.0349,-0.0304,-0.0199,-0.0081,-0.0085,0.0063,0.0077,0.0128,0.0126,0.0137,0.0133,0.0177,0.0177,0.0176,0.0176,0.0176,0,-0.0553,-0.0575,-0.0595,-0.0609,-0.064,-0.0618,-0.0635,-0.0611,-0.0576,-0.0561,-0.0481,-0.0442,-0.0296,-0.0196,-0.0089,0.004,0.0062,0.0129,0.0151,0.0118,0.0111,0.0143,0.0138,0.0179,0.0179,0.0178,0.0177,0,-0.0577,-0.0591,-0.0627,-0.0647,-0.0659,-0.0684,-0.0696,-0.0699,-0.066,-0.0637,-0.0623,-0.0505,-0.0372,-0.0229,-0.0051,0.0024,0.0152,0.0194,0.0135,0.0152,0.0183,0.0175,0.0259,0.0259,0.0259,0.0259,0.0259,0,-0.0589,-0.0613,-0.0669,-0.0704,-0.0721,-0.0756,-0.0777,-0.0751,-0.0744,-0.067,-0.0654,-0.0531,-0.044,-0.02,-0.0058,0.014,0.0169,0.0223,0.0217,0.018,0.0194,0.0186,0.0178,0.0259,0.0259,0.0259,0.0259,0,-0.0613,-0.0643,-0.0678,-0.0753,-0.0798,-0.0836,-0.0856,-0.0852,-0.0806,-0.0778,-0.066,-0.0531,-0.0382,-0.0197,-0.0049,0.0094,0.018,0.0224,0.0225,0.022,0.0182,0.0193,0.0186,0.0259,0.0259,0.0259,0.0259,0,-0.0637,-0.0676,-0.0732,-0.0792,-0.0857,-0.089,-0.0896,-0.0863,-0.0842,-0.0741,-0.0704,-0.0532,-0.0425,-0.0221,-0.0083,0.005,0.0086,0.0122,0.0129,0.0131,0.0064,-0.0006,0.0038,0,0,0,0,0,-0.0651,-0.0697,-0.0761,-0.0829,-0.0894,-0.0919,-0.0934,-0.0921,-0.0875,-0.0794,-0.0739,-0.0592,-0.0365,-0.0263,-0.013,-0.0101,0.0087,0.0054,0.0126,0.0259,0.0259,0.02,0,0,0,0,0,0,-0.0665,-0.073,-0.0761,-0.0843,-0.0889,-0.0946,-0.0952,-0.092,-0.0855,-0.0789,-0.0659,-0.058,-0.0355,-0.0439,-0.0133,-0.0094,-0.0035,0.0166,0.0168,0.0259,0.0259,0.0259,0.0198,0,0,0,0,0]}]]